| time (UTC) | temp C | wind direction | speed KPH | gust KPH | rain 1hr cm | rain 24hr cm | rain mn cm | humidity % | barometer mb |
| 20260503200553 | 17 | 265 | 6.4 | 11.3 | 0.00 | 0.00 | 0.00 | 31 | 1017.7 |
| 20260503200050 | 17 | 6 | 6.4 | 11.3 | 0.00 | 0.00 | 0.00 | 31 | 1017.7 |
| 20260503195547 | 16 | 166 | 3.2 | 4.8 | 0.00 | 0.00 | 0.00 | 33 | 1017.7 |
| 20260503195044 | 16 | 244 | 4.8 | 11.3 | 0.00 | 0.00 | 0.00 | 32 | 1017.8 |
| 20260503194541 | 16 | 300 | 4.8 | 9.7 | 0.00 | 0.00 | 0.00 | 31 | 1017.7 |
| 20260503194041 | 17 | 301 | 4.8 | 12.9 | 0.00 | 0.00 | 0.00 | 31 | 1017.9 |
| 20260503193538 | 16 | 30 | 4.8 | 12.9 | 0.00 | 0.00 | 0.00 | 33 | 1018.0 |
| 20260503193033 | 16 | 282 | 6.4 | 9.7 | 0.00 | 0.00 | 0.00 | 31 | 1018.2 |
| 20260503192530 | 17 | 246 | 6.4 | 9.7 | 0.00 | 0.00 | 0.00 | 29 | 1018.0 |
| 20260503192026 | 16 | 166 | 11.3 | 12.9 | 0.00 | 0.00 | 0.00 | 30 | 1018.0 |
| 20260503191522 | 16 | 314 | 4.8 | 9.7 | 0.00 | 0.00 | 0.00 | 31 | 1018.1 |
| 20260503191019 | 17 | 269 | 4.8 | 11.3 | 0.00 | 0.00 | 0.00 | 29 | 1018.1 |
| 20260503190516 | 17 | 220 | 3.2 | 8.0 | 0.00 | 0.00 | 0.00 | 30 | 1018.3 |
| 20260503190013 | 16 | 231 | 4.8 | 9.7 | 0.00 | 0.00 | 0.00 | 32 | 1018.3 |
| 20260503185510 | 16 | 154 | 6.4 | 16.1 | 0.00 | 0.00 | 0.00 | 30 | 1018.3 |
| 20260503185009 | 16 | 313 | 6.4 | 9.7 | 0.00 | 0.00 | 0.00 | 28 | 1018.5 |
| 20260503184506 | 17 | 203 | 3.2 | 4.8 | 0.00 | 0.00 | 0.00 | 28 | 1018.4 |
| 20260503184002 | 16 | 298 | 4.8 | 12.9 | 0.00 | 0.00 | 0.00 | 27 | 1018.6 |
| 20260503183459 | 16 | 141 | 1.6 | 3.2 | 0.00 | 0.00 | 0.00 | 28 | 1018.8 |
| 20260503182956 | 16 | 254 | 3.2 | 9.7 | 0.00 | 0.00 | 0.00 | 31 | 1018.3 |
| 20260503182455 | 15 | 104 | 1.6 | 8.0 | 0.00 | 0.00 | 0.00 | 28 | 1018.4 |
| 20260503181952 | 16 | 135 | 4.8 | 9.7 | 0.00 | 0.00 | 0.00 | 25 | 1019.0 |
| 20260503181449 | 15 | 178 | 0.0 | 11.3 | 0.00 | 0.00 | 0.00 | 26 | 1018.8 |
| 20260503180945 | 16 | 152 | 1.6 | 3.2 | 0.00 | 0.00 | 0.00 | 26 | 1018.7 |
| 20260503180443 | 15 | 123 | 4.8 | 8.0 | 0.00 | 0.00 | 0.00 | 26 | 1019.1 |
| 20260503175939 | 15 | 237 | 6.4 | 9.7 | 0.00 | 0.00 | 0.00 | 29 | 1019.0 |
| 20260503175438 | 15 | 106 | 4.8 | 11.3 | 0.00 | 0.00 | 0.00 | 36 | 1019.1 |
| 20260503174939 | 15 | 248 | 1.6 | 14.5 | 0.00 | 0.00 | 0.00 | 32 | 1019.1 |
| 20260503174437 | 15 | 166 | 4.8 | 4.8 | 0.00 | 0.00 | 0.00 | 32 | 1019.1 |
| 20260503173932 | 15 | 194 | 4.8 | 8.0 | 0.00 | 0.00 | 0.00 | 30 | 1019.2 |
| 20260503173428 | 15 | 113 | 1.6 | 12.9 | 0.00 | 0.00 | 0.00 | 33 | 1019.2 |
| 20260503172925 | 15 | 211 | 3.2 | 9.7 | 0.00 | 0.00 | 0.00 | 29 | 1019.3 |
| 20260503172423 | 13 | 284 | 11.3 | 14.5 | 0.00 | 0.00 | 0.00 | 31 | 1019.2 |
| 20260503171918 | 13 | 213 | 4.8 | 8.0 | 0.00 | 0.00 | 0.00 | 32 | 1019.5 |
| 20260503171415 | 13 | 180 | 3.2 | 11.3 | 0.00 | 0.00 | 0.00 | 31 | 1019.4 |
| 20260503170913 | 14 | 157 | 4.8 | 8.0 | 0.00 | 0.00 | 0.00 | 35 | 1019.7 |
| 20260503170409 | 14 | 299 | 6.4 | 12.9 | 0.00 | 0.00 | 0.00 | 34 | 1019.5 |
| 20260503150801 | 11 | 199 | 6.4 | 9.7 | 0.00 | 0.00 | 0.00 | 44 | 1020.5 |
| 20260503150257 | 10 | 157 | 4.8 | 11.3 | 0.00 | 0.00 | 0.00 | 47 | 1020.1 |
| 20260503140222 | 9 | 176 | 1.6 | 8.0 | 0.00 | 0.00 | 0.00 | 55 | 1020.0 |
| 20260503131151 | 7 | 112 | 4.8 | 9.7 | 0.00 | 0.00 | 0.00 | 65 | 1020.0 |
| 20260503130649 | 6 | 172 | 3.2 | 8.0 | 0.00 | 0.00 | 0.00 | 64 | 1019.9 |
| 20260503130146 | 6 | 167 | 3.2 | 4.8 | 0.00 | 0.00 | 0.00 | 67 | 1019.9 |
| 20260503120112 | 2 | 160 | 0.0 | 0.0 | 0.00 | 0.00 | 0.00 | 90 | 1019.6 |
| 20260503110539 | 1 | 147 | 1.6 | 1.6 | 0.00 | 0.00 | 0.00 | 92 | 1019.1 |
| 20260503090426 | 2 | 156 | 0.0 | 0.0 | 0.00 | 0.00 | 0.00 | 83 | 1017.8 |
| 20260503081352 | 5 | 160 | 0.0 | 1.6 | 0.00 | 0.00 | 0.00 | 75 | 1017.3 |
| 20260503080849 | 5 | 141 | 1.6 | 3.2 | 0.00 | 0.00 | 0.00 | 73 | 1017.2 |
| 20260503080346 | 5 | 123 | 3.2 | 3.2 | 0.00 | 0.00 | 0.00 | 77 | 1017.0 |
| 20260503072823 | 2 | 157 | 1.6 | 3.2 | 0.00 | 0.00 | 0.00 | 89 | 1016.8 |
| 20260503072320 | 2 | 182 | 0.0 | 3.2 | 0.00 | 0.00 | 0.00 | 88 | 1016.8 |
| 20260503071815 | 2 | 175 | 0.0 | 1.6 | 0.00 | 0.00 | 0.00 | 89 | 1016.8 |
| 20260503071313 | 2 | 165 | 0.0 | 3.2 | 0.00 | 0.00 | 0.00 | 89 | 1016.8 |
| 20260503070809 | 2 | 178 | 0.0 | 0.0 | 0.00 | 0.00 | 0.00 | 89 | 1016.7 |
| 20260503070307 | 2 | 182 | 0.0 | 1.6 | 0.00 | 0.00 | 0.00 | 89 | 1016.8 |
| 20260503060232 | 2 | 124 | 3.2 | 3.2 | 0.00 | 0.00 | 0.00 | 89 | 1016.6 |
| 20260503054719 | 2 | 166 | 0.0 | 1.6 | 0.00 | 0.00 | 0.00 | 88 | 1016.9 |
| 20260503054216 | 2 | 158 | 1.6 | 1.6 | 0.00 | 0.00 | 0.00 | 88 | 1016.8 |
| 20260503053714 | 2 | 203 | 1.6 | 1.6 | 0.00 | 0.00 | 0.00 | 87 | 1016.8 |
| 20260503053213 | 2 | 205 | 1.6 | 3.2 | 0.00 | 0.00 | 0.00 | 87 | 1016.7 |
| 20260503052709 | 2 | 170 | 0.0 | 1.6 | 0.00 | 0.00 | 0.00 | 87 | 1016.8 |
| 20260503052206 | 2 | 166 | 0.0 | 1.6 | 0.00 | 0.00 | 0.00 | 86 | 1017.0 |
| 20260503051701 | 2 | 147 | 0.0 | 1.6 | 0.00 | 0.00 | 0.00 | 86 | 1016.7 |
| 20260503051159 | 2 | 149 | 1.6 | 3.2 | 0.00 | 0.00 | 0.00 | 86 | 1016.9 |
| 20260503050655 | 3 | 128 | 1.6 | 3.2 | 0.00 | 0.00 | 0.00 | 85 | 1016.6 |
| 20260503050151 | 3 | 168 | 0.0 | 3.2 | 0.00 | 0.00 | 0.00 | 85 | 1016.9 |
| 20260503045649 | 3 | 234 | 1.6 | 1.6 | 0.00 | 0.00 | 0.00 | 84 | 1016.7 |
| 20260503045146 | 3 | 151 | 0.0 | 1.6 | 0.00 | 0.00 | 0.00 | 84 | 1016.9 |
| 20260503044643 | 3 | 145 | 1.6 | 1.6 | 0.00 | 0.00 | 0.00 | 83 | 1016.7 |
| 20260503044140 | 3 | 170 | 0.0 | 1.6 | 0.00 | 0.00 | 0.00 | 83 | 1016.7 |
| 20260503043637 | 3 | 103 | 1.6 | 3.2 | 0.00 | 0.00 | 0.00 | 83 | 1016.7 |
| 20260503043134 | 3 | 132 | 1.6 | 1.6 | 0.00 | 0.00 | 0.00 | 82 | 1016.8 |
| 20260503042630 | 3 | 164 | 0.0 | 0.0 | 0.00 | 0.00 | 0.00 | 81 | 1016.5 |
| 20260503042126 | 3 | 161 | 0.0 | 3.2 | 0.00 | 0.00 | 0.00 | 80 | 1016.6 |
| 20260503041623 | 3 | 185 | 0.0 | 1.6 | 0.00 | 0.00 | 0.00 | 80 | 1016.7 |
| 20260503041121 | 4 | 148 | 1.6 | 3.2 | 0.00 | 0.00 | 0.00 | 80 | 1016.6 |
| 20260503040618 | 4 | 231 | 1.6 | 3.2 | 0.00 | 0.00 | 0.00 | 78 | 1016.4 |
| 20260503040115 | 4 | 155 | 0.0 | 1.6 | 0.00 | 0.00 | 0.00 | 77 | 1016.0 |
| 20260503035612 | 5 | 182 | 1.6 | 1.6 | 0.00 | 0.00 | 0.00 | 77 | 1015.9 |
| 20260503035110 | 5 | 189 | 0.0 | 3.2 | 0.00 | 0.00 | 0.00 | 77 | 1015.9 |
| 20260503034607 | 5 | 146 | 3.2 | 3.2 | 0.00 | 0.00 | 0.00 | 76 | 1015.9 |
| 20260503034104 | 5 | 168 | 0.0 | 3.2 | 0.00 | 0.00 | 0.00 | 76 | 1015.9 |
| 20260503033601 | 5 | 50 | 1.6 | 3.2 | 0.00 | 0.00 | 0.00 | 75 | 1015.8 |
| 20260503033059 | 5 | 178 | 0.0 | 1.6 | 0.00 | 0.00 | 0.00 | 74 | 1015.7 |
| 20260503032557 | 6 | 113 | 1.6 | 1.6 | 0.00 | 0.00 | 0.00 | 72 | 1016.0 |
| 20260503032055 | 6 | 159 | 0.0 | 1.6 | 0.00 | 0.00 | 0.00 | 68 | 1015.7 |
| 20260503031552 | 6 | 333 | 4.8 | 8.0 | 0.00 | 0.00 | 0.00 | 68 | 1015.9 |
| 20260503031049 | 6 | 203 | 1.6 | 3.2 | 0.00 | 0.00 | 0.00 | 68 | 1015.6 |
| 20260503030545 | 7 | 282 | 3.2 | 3.2 | 0.00 | 0.00 | 0.00 | 64 | 1015.7 |
| 20260503030042 | 7 | 192 | 1.6 | 8.0 | 0.00 | 0.00 | 0.00 | 61 | 1015.9 |
| 20260503025539 | 7 | 184 | 3.2 | 11.3 | 0.00 | 0.00 | 0.00 | 56 | 1015.8 |
| 20260503025037 | 5 | 195 | 1.6 | 3.2 | 0.00 | 0.00 | 0.00 | 75 | 1015.9 |
| 20260503024533 | 5 | 143 | 0.0 | 1.6 | 0.00 | 0.00 | 0.00 | 75 | 1015.9 |
| 20260503024030 | 5 | 132 | 1.6 | 3.2 | 0.00 | 0.00 | 0.00 | 75 | 1015.8 |
| 20260503023527 | 5 | 159 | 0.0 | 1.6 | 0.00 | 0.00 | 0.00 | 74 | 1015.9 |
| 20260503023025 | 5 | 135 | 1.6 | 3.2 | 0.00 | 0.00 | 0.00 | 74 | 1015.9 |
| 20260503022520 | 6 | 167 | 0.0 | 3.2 | 0.00 | 0.00 | 0.00 | 71 | 1015.7 |
| 20260503022015 | 6 | 168 | 1.6 | 3.2 | 0.00 | 0.00 | 0.00 | 71 | 1015.6 |
| 20260503021512 | 6 | 169 | 0.0 | 1.6 | 0.00 | 0.00 | 0.00 | 70 | 1015.5 |
| 20260503021009 | 6 | 173 | 0.0 | 1.6 | 0.00 | 0.00 | 0.00 | 68 | 1015.5 |
| 20260503020506 | 6 | 168 | 0.0 | 0.0 | 0.00 | 0.00 | 0.00 | 67 | 1015.5 |
| 20260503020003 | 6 | 138 | 1.6 | 4.8 | 0.00 | 0.00 | 0.00 | 65 | 1015.5 |
| 20260503015459 | 7 | 160 | 0.0 | 1.6 | 0.00 | 0.00 | 0.00 | 65 | 1015.3 |
| 20260503014956 | 7 | 133 | 1.6 | 1.6 | 0.00 | 0.00 | 0.00 | 63 | 1015.2 |
| 20260503014453 | 8 | 166 | 0.0 | 0.0 | 0.00 | 0.00 | 0.00 | 60 | 1015.4 |
| 20260503013951 | 8 | 150 | 1.6 | 1.6 | 0.00 | 0.00 | 0.00 | 54 | 1014.8 |
| 20260503013448 | 8 | 239 | 1.6 | 1.6 | 0.00 | 0.00 | 0.00 | 55 | 1015.0 |
| 20260503012945 | 9 | 174 | 0.0 | 4.8 | 0.00 | 0.00 | 0.00 | 53 | 1015.2 |
| 20260503012443 | 9 | 126 | 1.6 | 3.2 | 0.00 | 0.00 | 0.00 | 52 | 1015.3 |
| 20260503011938 | 9 | 180 | 1.6 | 4.8 | 0.00 | 0.00 | 0.00 | 49 | 1014.8 |
| 20260503011435 | 9 | 153 | 3.2 | 9.7 | 0.00 | 0.00 | 0.00 | 48 | 1014.8 |
| 20260503010933 | 10 | 114 | 1.6 | 3.2 | 0.00 | 0.00 | 0.00 | 49 | 1014.6 |
| 20260503010429 | 9 | 194 | 3.2 | 4.8 | 0.00 | 0.00 | 0.00 | 50 | 1014.7 |
| 20260503005927 | 10 | 101 | 3.2 | 3.2 | 0.00 | 0.00 | 0.00 | 48 | 1014.7 |
| 20260503005424 | 10 | 145 | 3.2 | 3.2 | 0.00 | 0.00 | 0.00 | 48 | 1014.5 |
| 20260503004920 | 10 | 176 | 1.6 | 3.2 | 0.00 | 0.00 | 0.00 | 46 | 1014.4 |
| 20260503004417 | 10 | 180 | 0.0 | 9.7 | 0.00 | 0.00 | 0.00 | 47 | 1014.4 |
| 20260503003915 | 10 | 111 | 3.2 | 3.2 | 0.00 | 0.00 | 0.00 | 45 | 1014.4 |
| 20260503003412 | 10 | 145 | 4.8 | 8.0 | 0.00 | 0.00 | 0.00 | 44 | 1014.2 |
| 20260503002909 | 10 | 229 | 1.6 | 4.8 | 0.00 | 0.00 | 0.00 | 44 | 1014.1 |
| 20260503002406 | 10 | 214 | 4.8 | 11.3 | 0.00 | 0.00 | 0.00 | 45 | 1014.1 |
| 20260503001902 | 10 | 192 | 6.4 | 9.7 | 0.00 | 0.00 | 0.00 | 43 | 1014.0 |
| 20260503001358 | 10 | 101 | 8.0 | 12.9 | 0.00 | 0.00 | 0.00 | 44 | 1014.1 |
| 20260503000856 | 11 | 194 | 4.8 | 9.7 | 0.00 | 0.00 | 0.00 | 45 | 1013.9 |
| 20260503000353 | 11 | 145 | 4.8 | 14.5 | 0.00 | 0.00 | 0.00 | 42 | 1013.8 |
| 20260502235850 | 11 | 255 | 9.7 | 14.5 | 0.00 | 0.00 | 0.00 | 43 | 1014.0 |
| 20260502235347 | 11 | 196 | 9.7 | 12.9 | 0.00 | 0.00 | 0.00 | 43 | 1013.4 |
| 20260502234844 | 11 | 185 | 4.8 | 9.7 | 0.00 | 0.00 | 0.00 | 45 | 1013.7 |
| 20260502234341 | 11 | 156 | 0.0 | 3.2 | 0.00 | 0.00 | 0.00 | 44 | 1013.2 |
| 20260502233838 | 11 | 185 | 1.6 | 4.8 | 0.00 | 0.00 | 0.00 | 40 | 1013.3 |
| 20260502233334 | 12 | 105 | 3.2 | 14.5 | 0.00 | 0.00 | 0.00 | 40 | 1013.4 |
| 20260502232831 | 12 | 195 | 11.3 | 14.5 | 0.00 | 0.00 | 0.00 | 39 | 1013.3 |
| 20260502232327 | 12 | 129 | 4.8 | 9.7 | 0.00 | 0.00 | 0.00 | 37 | 1013.1 |
| 20260502231824 | 12 | 210 | 1.6 | 11.3 | 0.00 | 0.00 | 0.00 | 36 | 1013.3 |
| 20260502231322 | 13 | 204 | 6.4 | 12.9 | 0.00 | 0.00 | 0.00 | 35 | 1013.6 |
| 20260502230820 | 13 | 162 | 4.8 | 8.0 | 0.00 | 0.00 | 0.00 | 35 | 1013.1 |
| 20260502230318 | 13 | 230 | 0.0 | 3.2 | 0.00 | 0.00 | 0.00 | 36 | 1013.2 |
| 20260502225814 | 13 | 268 | 4.8 | 9.7 | 0.00 | 0.00 | 0.00 | 35 | 1013.1 |
| 20260502225311 | 13 | 202 | 1.6 | 3.2 | 0.00 | 0.00 | 0.00 | 35 | 1013.2 |
| 20260502224807 | 13 | 208 | 1.6 | 8.0 | 0.00 | 0.00 | 0.00 | 36 | 1013.0 |
| 20260502224304 | 13 | 160 | 6.4 | 11.3 | 0.00 | 0.00 | 0.00 | 36 | 1013.3 |
| 20260502223802 | 13 | 188 | 3.2 | 9.7 | 0.00 | 0.00 | 0.00 | 37 | 1013.3 |
| 20260502223300 | 14 | 186 | 3.2 | 4.8 | 0.00 | 0.00 | 0.00 | 35 | 1013.0 |
| 20260502222757 | 14 | 190 | 8.0 | 11.3 | 0.00 | 0.00 | 0.00 | 36 | 1012.7 |
| 20260502222254 | 14 | 229 | 4.8 | 8.0 | 0.00 | 0.00 | 0.00 | 36 | 1013.1 |
| 20260502221750 | 14 | 87 | 3.2 | 8.0 | 0.00 | 0.00 | 0.00 | 34 | 1013.1 |
| 20260502221246 | 14 | 248 | 6.4 | 9.7 | 0.00 | 0.00 | 0.00 | 36 | 1013.1 |
| 20260502220743 | 14 | 200 | 6.4 | 11.3 | 0.00 | 0.00 | 0.00 | 35 | 1013.0 |
| 20260502220239 | 15 | 231 | 9.7 | 16.1 | 0.00 | 0.00 | 0.00 | 33 | 1012.9 |
| 20260502215735 | 15 | 194 | 4.8 | 9.7 | 0.00 | 0.00 | 0.00 | 36 | 1013.0 |
| 20260502215233 | 15 | 163 | 8.0 | 12.9 | 0.00 | 0.00 | 0.00 | 33 | 1012.8 |
| 20260502214730 | 15 | 225 | 0.0 | 3.2 | 0.00 | 0.00 | 0.00 | 36 | 1012.6 |
| 20260502214227 | 15 | 228 | 3.2 | 9.7 | 0.00 | 0.00 | 0.00 | 39 | 1012.8 |
| 20260502213724 | 15 | 240 | 4.8 | 4.8 | 0.00 | 0.00 | 0.00 | 35 | 1012.5 |
| 20260502213222 | 15 | 143 | 11.3 | 14.5 | 0.00 | 0.00 | 0.00 | 34 | 1012.1 |
| 20260502212720 | 15 | 89 | 8.0 | 20.9 | 0.00 | 0.00 | 0.00 | 33 | 1012.1 |
| 20260502212218 | 14 | 210 | 1.6 | 8.0 | 0.00 | 0.00 | 0.00 | 32 | 1012.4 |
| 20260502211714 | 15 | 135 | 11.3 | 12.9 | 0.00 | 0.00 | 0.00 | 35 | 1012.3 |
| 20260502211211 | 15 | 240 | 1.6 | 9.7 | 0.00 | 0.00 | 0.00 | 32 | 1012.1 |
| 20260502210708 | 15 | 83 | 9.7 | 11.3 | 0.00 | 0.00 | 0.00 | 32 | 1012.1 |
| 20260502210205 | 14 | 197 | 4.8 | 17.7 | 0.00 | 0.00 | 0.00 | 37 | 1012.3 |
| 20260502205702 | 15 | 152 | 4.8 | 8.0 | 0.00 | 0.00 | 0.00 | 34 | 1011.8 |
| 20260502205158 | 15 | 134 | 14.5 | 20.9 | 0.00 | 0.00 | 0.00 | 35 | 1012.3 |
| 20260502204655 | 15 | 217 | 8.0 | 14.5 | 0.00 | 0.00 | 0.00 | 33 | 1012.3 |
| 20260502204153 | 14 | 112 | 6.4 | 20.9 | 0.00 | 0.00 | 0.00 | 35 | 1012.0 |
| 20260502203650 | 13 | 137 | 3.2 | 12.9 | 0.00 | 0.00 | 0.00 | 35 | 1012.0 |
| 20260502203149 | 13 | 218 | 8.0 | 11.3 | 0.00 | 0.00 | 0.00 | 34 | 1012.1 |
| 20260502202648 | 13 | 218 | 6.4 | 8.0 | 0.00 | 0.00 | 0.00 | 35 | 1012.5 |
| 20260502202147 | 13 | 198 | 9.7 | 11.3 | 0.00 | 0.00 | 0.00 | 38 | 1012.0 |
| 20260502201643 | 15 | 137 | 8.0 | 16.1 | 0.00 | 0.00 | 0.00 | 34 | 1012.0 |
| 20260502201140 | 15 | 276 | 4.8 | 11.3 | 0.00 | 0.00 | 0.00 | 32 | 1012.1 |